Location: Kaseke
(18.0171°S, 31.0526°E)
Time: 12:41:05
(UTC+00:00)

Centaur Rocket - Pass Details

Date: 14 July 2020
Orbit: 255 x 9155 km, 18.1° (Epoch: 07 August)

Event Time Altitude Azimuth Distance (km) Brightness Sun altitude
Exits shadow 02:35:20 52° 270° (W) 1,433 4.4 -26.1°
Maximum altitude 02:37:21 87° 354° (N) 1,456 4.8 -25.6°
Drops below altitude 10° 02:57:39 10° 82° (E) 7,840 9.8 -21.0°
Sets 03:08:33 0° 81° (E) 10,645 10.9 -18.5°
